COSMOS 1275 DEB, 12693

Orbit data source: Space-Track

COSMOS 1275 DEB, 12693 is space debris in LEO originally from a launch on Thu, 04 Jun 1981 UTC launched from the Plesetsk Missile And Space Complex (PKMTR). Debris objects in space refer to the collection of defunct objects orbiting the Earth. Examples of debris include non-operational satellites, rocket bodies, and fragments generated from explosions, collisions, or faulty payload assembly.

Loading next visibility...
Identifier
12693, 1981-053AM
Orbit
LEO
Country
Flag of CISCIS
Related business
Manufacturer
Unknown
Mission
Spacecraft
Bus & Motor
Unknown
Mass
Unknown
Launch date (UTC)
1981-06-04 (44 years ago)
Launch vehicle
Unknown
Launch site
Plesetsk Missile And Space Complex (PKMTR)
Object type
Payload
Rocket body
Debris
Shape & HBR
Unknown
Radar Cross Section
Medium (>0.1 m² and <1 m²)

Expand to show TLE details & history
Last TLE update: 7 hours ago

TLE from 7 hours ago
0 COSMOS 1275 DEB
1 12693U 81053AM  25246.21396433  .00003050  00000-0  14019-2 0  9993
2 12693  83.1481 159.5439 0045037 196.3212 315.9741 14.20391620947319
Epoch: 2025-09-03T05:08Z
TLE epoch observation values (Epoch: 2025-09-03T05:08:06.518Z)
Latitude
27.889°
Longitude
-83.70399°
Altitude
804.247 km
Speed
7.466 km/s
True Right ascension
22h 23m 40s
True Declination
27° 44' 53"
Sunlit
Object was in full shadow at epoch
Visualization orbit readout
Latitude
Unknown
Longitude
Unknown
Altitude
Unknown
Speed
Unknown
Apparent Right ascension
Unknown
Apparent Declination
Unknown
Sunlit
N/A
Visualization observer readout
Local Sidereal Time
04:07:23
Azimuth
Unknown
Elevation
Unknown
Doppler factor
Unknown
Orbital elements
Apogee altitude
853.53 km
Perigee altitude
788.684 km
Semi-major axis
7,199.244 km
Eccentricity
0.0045
Inclination
83.1481°
RAAN
159.5439°
Arg. of periapsis
196.3212°
True anomaly
315.61397°
Mean anomaly
315.9741°
Eccentric anomaly
315.79418°
Mean motion
3.55314 °/min
Orbital period
101.32 mins
BSTAR
0.0014019
Loading maneuver chart data...
Computing Atmospheric mass density...
Loading historical data...
Loading historical data...
Loading historical data...
Loading historical data...
Loading historical data...
Loading historical data...
Loading historical data...

Documentation

Showing up to 5 results
|